Regional Weather Roundup
Issued by NWS

Home | Current Version | Previous Version | Graphics & Text | Print | Product List | Glossary On
Versions: 1 2 3 4 5 6 7 8 9 10 11 12 13 14 15 16 17 18 19 20 21 22 23 24 25 26 27 28 29 30 31 32 33 34 35 36 37 38 39 40 41 42 43 44 45 46 47 48 49 50
000
ASUS43 KLSX 181859
RWRMO

WEATHER SUMMARY FOR MISSOURI
NATIONAL WEATHER SERVICE SPRINGFIELD MO
200 PM CDT THU SEP 18 2014

NOTE: "FAIR" INDICATES FEW OR NO CLOUDS BELOW 12,000 FEET WITH NO
       SIGNIFICANT WEATHER AND/OR OBSTRUCTIONS TO VISIBILITY.
       CURRENT SKY AND/OR WEATHER CONDITIONS ARE NOT AVAILABLE FOR
       CHILLICOTHE AND FARMINGTON.

MOZ001>031-035>038-043-044-053-054-182000-
...NORTHERN AND WESTERN MISSOURI...

CITY           SKY/WX    TMP DP  RH WIND       PRES   REMARKS
KANSAS CTY INT CLOUDY    65  60  84 E8        30.02F
KANSAS C DTWN  CLOUDY    67  61  81 NE8       30.01F
LEE`S SUMMIT   CLOUDY    65  61  87 E12       30.02F
ST JOSEPH      CLOUDY    64  59  83 E7        30.03F
KIRKSVILLE     CLOUDY    68  58  70 E7        30.07F

$$
MOZ066>068-077>081-088>096-101>105-182000-
...SOUTHWEST MISSOURI...

CITY           SKY/WX    TMP DP  RH WIND       PRES   REMARKS
SPRINGFIELD    CLOUDY    73  62  68 E8        29.99S
JOPLIN         CLOUDY    72  65  78 NE7       29.98S

$$
MOZ032>034-039>042-045>050-055>058-069>072-182000-
...CENTRAL MISSOURI...

CITY           SKY/WX    TMP DP  RH WIND       PRES   REMARKS
COLUMBIA       PTSUNNY   71  61  70 SE7       30.03
JEFFERSON CITY CLOUDY    70  60  70 E7        30.02F
ROLLA          PTSUNNY   68  60  75 E12       30.01F
SEDALIA        CLOUDY    67  61  81 E10       30.03R
OSAGE BEACH    CLOUDY    72  63  73 E8        30.01S

$$
MOZ051-052-059>065-182000-
...EAST CENTRAL MISSOURI...

CITY           SKY/WX    TMP DP  RH WIND       PRES   REMARKS
ST LOUIS INTL  MOSUNNY   72  56  57 E7        30.05F
SPIRIT OF STL  MOSUNNY   72  57  59 SE6       30.03F
ST CHARLES     SUNNY     73  56  54 E9        30.04F

$$
MOZ072>076-082>087-097>100-106>115-182000-
...SOUTH CENTRAL AND SOUTHEAST MISSOURI...

CITY           SKY/WX    TMP DP  RH WIND       PRES   REMARKS
CAPE GIRARDEAU PTSUNNY   75  59  57 E8        30.01F
FARMINGTON     MOSUNNY   72  57  60 E8        30.05F
POPLAR BLUFF   CLOUDY    73  58  59 E9        29.99F
WEST PLAINS    CLOUDY    64  60  87 VRB6      30.04F

$$


USA.gov is the U.S. government's official web portal to all federal, state and local government web resources and services.